Overview Statistics Trail Chart Weather Telemetry Raw packets
 

This is the latest recevied weather packets stored in our database for station/object 4S6DRJ-13. If no packets are shown the sender has not sent any weather packets the latest 10 day(s).

<< 390 391 392 393 394 395 396 >>
Time Temp. Humidity Pressure Rain* Wind** Luminosity Snow
1787873478 27.78° C 86% 1008.6 hPa 0 mm 0.89 m/s, 213° 0 W/m² -
1787873417 27.78° C 86% 1008.6 hPa 0 mm 0.89 m/s, 260° 0 W/m² -
1787873356 27.78° C 86% 1008.7 hPa 0 mm 0.45 m/s, 233° 0 W/m² -
1787873295 27.78° C 86% 1008.7 hPa 0 mm 0.45 m/s, 121° 0 W/m² -
1787873234 27.78° C 86% 1008.5 hPa 0 mm 1.34 m/s, 211° 0 W/m² -
1787873173 27.78° C 86% 1008.6 hPa 0 mm 1.34 m/s, 219° 0 W/m² -
1787873113 27.78° C 86% 1008.7 hPa 0 mm 2.24 m/s, 227° 0 W/m² -
1787873051 27.78° C 87% 1008.6 hPa 0 mm 0.89 m/s, 254° 0 W/m² -
1787872990 27.78° C 86% 1008.6 hPa 0 mm 1.79 m/s, 244° 0 W/m² -
1787872929 27.78° C 87% 1008.7 hPa 0 mm 2.68 m/s, 215° 0 W/m² -
1787872869 27.78° C 87% 1008.5 hPa 0 mm 1.79 m/s, 276° 0 W/m² -
1787872807 27.78° C 87% 1008.5 hPa 0 mm 0.89 m/s, 284° 0 W/m² -
1787872746 27.78° C 87% 1008.6 hPa 0 mm 1.79 m/s, 238° 0 W/m² -
1787872686 27.78° C 86% 1008.4 hPa 0 mm 0.89 m/s, 314° 0 W/m² -
1787872625 27.78° C 86% 1008.5 hPa 0 mm 0 m/s 0 W/m² -
1787872563 27.78° C 87% 1008.5 hPa 0 mm 1.34 m/s, 253° 0 W/m² -
1787872503 27.78° C 86% 1008.7 hPa 0 mm 0.89 m/s, 276° 0 W/m² -
1787872441 27.78° C 86% 1008.7 hPa 0 mm 1.79 m/s, 230° 0 W/m² -
1787872380 27.78° C 86% 1008.5 hPa 0 mm 0.45 m/s, 234° 0 W/m² -
1787872320 27.78° C 86% 1008.7 hPa 0 mm 0.45 m/s, 207° 0 W/m² -
1787872258 27.78° C 86% 1008.6 hPa 0 mm 0 m/s 0 W/m² -
1787872198 27.78° C 86% 1008.5 hPa 0 mm 0.45 m/s, 237° 0 W/m² -
1787872137 27.78° C 86% 1008.7 hPa 0 mm 0.89 m/s, 309° 0 W/m² -
1787872076 27.78° C 86% 1008.7 hPa 0 mm 0 m/s 0 W/m² -
1787872015 27.78° C 86% 1008.5 hPa 0 mm 0.89 m/s, 311° 0 W/m² -

* Rain latest hour (hover to see other rain measurements)
** Current wind speed in m/s (hover to see current wind gust speed)